This is the latest recevied weather packets stored in our database for station/object DL6MAA-11. If no packets are shown the sender has not sent any weather packets the latest 10 day(s).
| Time | Temp. | Humidity | Pressure | Rain* | Wind** | Luminosity | Snow |
|---|---|---|---|---|---|---|---|
| 1777908126 | 22.22° C | 42% | 1008.9 hPa | 0 mm | - | 174 W/m² | - |
| 1777907827 | 22.22° C | 42% | 1008.9 hPa | 0 mm | - | 158 W/m² | - |
| 1777907528 | 22.22° C | 41% | 1009.5 hPa | 0 mm | - | 288 W/m² | - |
| 1777907217 | 22.78° C | 40% | 1009.5 hPa | 0 mm | - | 200 W/m² | - |
| 1777906919 | 23.33° C | 40% | 1009.5 hPa | 0 mm | - | 287 W/m² | - |
| 1777906621 | 22.78° C | 41% | 1009.5 hPa | 0 mm | - | 320 W/m² | - |
| 1777906327 | 22.78° C | 42% | 1009.5 hPa | 0 mm | - | 265 W/m² | - |
| 1777906031 | 23.33° C | 40% | 1009.5 hPa | 0 mm | - | 253 W/m² | - |
| 1777905726 | 23.33° C | 40% | 1009.5 hPa | 0 mm | - | 380 W/m² | - |
| 1777905430 | 23.33° C | 41% | 1009.5 hPa | 0 mm | - | 424 W/m² | - |
| 1777905118 | 22.78° C | 39% | 1009.5 hPa | 0 mm | - | 221 W/m² | - |
| 1777904821 | 23.33° C | 39% | 1009.8 hPa | 0 mm | - | 399 W/m² | - |
| 1777904524 | 23.33° C | 41% | 1009.8 hPa | 0 mm | - | 429 W/m² | - |
| 1777904233 | 23.33° C | 42% | 1009.8 hPa | 0 mm | - | 482 W/m² | - |
| 1777903916 | 22.78° C | 43% | 1009.2 hPa | 0 mm | - | 427 W/m² | - |
| 1777903616 | 22.78° C | 42% | 1009.2 hPa | 0 mm | - | 367 W/m² | - |
| 1777903324 | 22.22° C | 43% | 1009.2 hPa | 0 mm | - | 443 W/m² | - |
| 1777903030 | 22.22° C | 44% | 1009.4 hPa | 0 mm | - | 376 W/m² | - |
| 1777902732 | 22.22° C | 42% | 1009.4 hPa | 0 mm | - | 327 W/m² | - |
| 1777902415 | 21.67° C | 43% | 1009.4 hPa | 0 mm | - | 267 W/m² | - |
| 1777902120 | 21.67° C | 43% | 1009.4 hPa | 0 mm | - | 241 W/m² | - |
| 1777901830 | 22.22° C | 42% | 1009.4 hPa | 0 mm | - | 230 W/m² | - |
| 1777901526 | 21.67° C | 43% | 1009.4 hPa | 0 mm | - | 276 W/m² | - |
| 1777901214 | 22.22° C | 45% | 1009.5 hPa | 0 mm | - | 241 W/m² | - |
| 1777900918 | 21.67° C | 44% | 1009.5 hPa | 0 mm | - | 276 W/m² | - |
* Rain since midnight (hover to see other rain measurements)
** Current wind speed in m/s (hover to see current wind gust speed)